Location: Caltech
(34.1382°N, 118.1253°W)
Time: 20:20:45
(UTC-07:00)

ARGOS - Visible Passes

Search period start: 24 May 2015 00:00
Search period end: 03 June 2015 00:00
Orbit: 821 x 835 km, 98.7° (Epoch: 24 May)

Date Brightness Start Highest point End Pass type
(mag) Time Alt. Az. Time Alt. Az. Time Alt. Az.
24 May 3.0 22:29:56 73° SSE 22:30:30 89° E 22:35:58 10° NNW visible
25 May 3.2 22:11:10 52° ESE 22:12:03 59° ENE 22:17:25 10° N visible
25 May 5.4 23:52:41 14° W 23:52:47 14° W 23:55:27 10° WNW visible
26 May 3.8 21:52:23 34° ESE 21:53:39 39° ENE 21:58:42 10° N visible
26 May 4.9 23:33:55 22° W 23:34:04 22° W 23:38:07 10° NW visible
27 May 4.4 21:33:37 22° E 21:35:17 27° ENE 21:39:47 10° NNE visible
27 May 4.3 23:15:08 33° WSW 23:15:25 33° W 23:20:15 10° NW visible
28 May 4.8 21:14:51 14° E 21:16:56 18° ENE 21:20:37 10° NNE visible
28 May 3.6 22:56:22 49° WSW 22:56:50 51° W 23:02:06 10° NNW visible
29 May 5.2 20:56:52 10° E 20:58:39 12° ENE 21:00:46 10° NE visible
29 May 3.1 22:37:36 66° SSW 22:38:19 78° WSW 22:43:46 10° NNW visible
30 May 3.1 22:18:50 56° SE 22:19:51 71° ENE 22:25:16 10° N visible
31 May 5.6 00:00:21 12° W 00:00:43 12° W 00:02:19 10° WNW visible
31 May 3.6 22:00:04 38° ESE 22:01:25 47° ENE 22:06:37 10° N visible
31 May 5.1 23:41:35 18° W 23:41:57 18° W 23:45:32 10° NW visible
01 Jun 4.1 21:41:18 26° ESE 21:43:02 31° ENE 21:47:48 10° N visible
01 Jun 4.6 23:22:50 28° WSW 23:23:17 28° W 23:27:50 10° NW visible
02 Jun 4.6 21:22:33 17° E 21:24:41 21° ENE 21:28:45 10° NNE visible
02 Jun 3.9 23:04:04 41° WSW 23:04:40 42° W 23:09:47 10° NNW visible
